Location: Morisset
(33.1080°S, 151.4871°E)
Time: 09:12:44
(UTC+00:00)

NOSS 3-1 (C) - Pass Details

Date: 29 October 2020
Orbit: 741 x 1467 km, 63.4° (Epoch: 23 November)

Event Time Altitude Azimuth Distance (km) Brightness Sun altitude
Rises 17:21:08 0° 205° (SSW) 3,727 6.6 -19.1°
Reaches altitude 10° 17:24:01 10° 199° (SSW) 2,663 5.9 -18.6°
Maximum altitude 17:29:50 46° 126° (SE) 1,116 4.3 -17.5°
Drops below altitude 10° 17:34:54 10° 53° (NE) 2,318 5.8 -16.6°
Sets 17:37:15 0° 46° (NE) 3,199 6.4 -16.2°
